[[{"header":{"parameterUnit":"m.s-1","parameterCategory":1,"la1":30.2991,"la2":30.254,"lo1":-89.0895,"lo2":-89.0444,"dy":0.0017,"dx":0.0017,"nx":28,"ny":28,"refTime":"2024-06-15T09:00:00:Z","depth":0,"parameterNumber":2,"parameterNumberName":"U-component_of_WINDS"},"data":[0,0,0,0,0,0,0,0,0,0,0,0,0,0,0,0,0,0,0,0,0,0,0,0,0,0,0,0,0,0,0,0,0,0,0,0,0,0,0,0,0,0,0,0,0,0,0,0,0,0,0,0,0,0,0,0,0,0,-5.2915,-5.2917,0,-5.3031,-5.3032,-5.3034,-5.2914,-5.2909,-5.2904,-5.29,-5.3025,-5.3032,-5.304,0,0,0,0,0,0,0,0,0,0,0,0,0,-5.2597,-5.2603,-5.2915,-5.2917,-5.2918,-5.3031,-5.3032,-5.3034,-5.2914,-5.2909,-5.2903,-5.2898,-5.3022,-5.3031,-5.3041,0,0,0,0,0,0,0,0,0,0,0,0,0,-5.2726,-5.2605,-5.2915,-5.2872,-5.2869,-5.303,-5.3032,-5.3034,-5.2916,-5.2909,-5.2902,-5.2895,-5.3019,-5.3031,-5.3042,-5.3253,0,0,-5.3077,-5.3082,0,0,0,0,0,0,0,0,-5.2719,-5.2738,-5.2877,-5.2875,-5.2872,-5.295,-5.2966,-5.3108,-5.2917,-5.2898,-5.29,-5.2892,-5.3006,-5.3018,-5.3056,-5.3259,-5.3265,-5.3078,-5.3085,-5.309,-5.3093,0,0,0,0,0,0,0,-5.271,-5.2732,-5.2961,-5.2879,-5.2876,-5.2849,-5.2859,-5.2992,-5.299,-5.2899,-5.2891,-5.2906,-5.3004,-5.3045,-5.3058,-5.3266,-5.3078,-5.3088,-5.3095,-5.31,-5.365,-5.3657,0,0,0,0,0,0,-5.2705,-5.2726,-5.2957,-5.2965,-5.2777,-5.286,-5.2872,-5.2933,-5.2988,-5.299,-5.2912,-5.29,-5.3029,-5.3044,-5.3062,-5.3313,-5.309,-5.3101,-5.3107,-5.3642,-5.3651,-5.366,0,0,0,0,0,0,-5.2699,-5.2727,-5.2953,-5.2843,-5.2869,-5.2873,-5.2942,-5.2939,-5.2979,-5.2998,-5.2997,-5.2954,-5.3024,-5.3046,-5.3206,-5.3315,-5.3106,-5.3117,-5.3633,-5.3645,-5.3656,-5.3816,0,0,0,0,0,0,-5.269,-5.2725,-5.2804,-5.2846,-5.2876,-5.3094,-5.2949,-5.2946,-5.2999,-5.2984,-5.3037,-5.3039,-5.302,-5.319,-5.3218,-5.3327,-5.3126,-5.3623,-5.3638,-5.3652,-5.3801,-5.3832,-5.3858,0,0,0,0,0,-5.2679,-5.2846,-5.2809,-5.2838,-5.2974,-5.31,-5.3118,-5.309,-5.3008,-5.3088,-5.31,-5.3037,-5.3299,-5.3207,-5.3238,-5.3353,-5.3616,-5.3634,-5.3651,-5.3789,-5.3826,-5.3858,0,0,0,0,0,0,-5.282,-5.2851,-5.281,-5.2995,-5.3046,-5.308,-5.318,-5.3131,-5.3208,-5.3191,-5.3156,-5.3169,-5.3339,-5.3362,-5.3259,-5.356,-5.3445,-5.3469,-5.3539,-5.3575,-5.3602,-5.3593,-5.3135,0,0,0,0,0,-5.2872,-5.297,-5.2993,-5.3154,-5.3181,-5.3177,-5.3231,-5.3205,-5.3257,-5.3279,-5.3302,-5.3357,-5.3451,-5.3514,-5.3602,-5.3805,-5.3815,-5.3899,-5.3927,-5.395,-5.3972,-5.4081,-5.4118,-5.3717,-5.3717,-5.3716,0,0,-5.2982,-5.3011,-5.3075,-5.3183,-5.3219,-5.3323,-5.3196,-5.3311,-5.3388,-5.3297,-5.3449,-5.3469,-5.3528,-5.371,-5.3792,-5.3734,-5.4085,-5.3973,-5.3991,-5.4,-5.4102,-5.414,-5.4174,-5.3728,-5.3726,-5.3724,0,0,-5.3234,-5.3266,-5.3403,-5.3442,-5.3498,-5.3494,-5.3527,-5.3569,-5.3578,-5.373,-5.3663,-5.3756,-5.3919,-5.3964,-5.4008,-5.4278,-5.4223,-5.4308,-5.4456,-5.4563,-5.4595,-5.4622,-5.4719,-5.4754,-5.4329,-5.433,-5.433,0,-5.3364,-5.3515,-5.3481,-5.3601,-5.3651,-5.3571,-5.3711,-5.3751,-5.3834,-5.3871,-5.3805,-5.4008,-5.4042,-5.4234,-5.43,-5.4338,-5.4376,-5.4301,-5.4592,-5.462,-5.4646,-5.4737,-5.4773,-5.434,-5.4339,-5.4337,-5.4337,0,-5.3672,-5.3778,-5.3883,-5.3963,-5.4024,-5.4154,-5.4141,-5.4208,-5.4178,-5.4182,-5.4338,-5.4376,-5.447,-5.4514,-5.4487,-5.4703,-5.4665,-5.4597,-5.448,-5.4694,-5.4779,-5.4814,-5.4354,-5.435,-5.4347,-5.4345,0,0,-5.4015,-5.4074,-5.4113,-5.4148,-5.4204,-5.4287,-5.4414,-5.4503,-5.4562,-5.4623,-5.4728,-5.4869,-5.4805,-5.4856,-5.4833,-5.4927,-5.5138,-5.4847,-5.4847,-5.4899,-5.5379,-5.5429,-5.547,-5.5102,-5.5109,-5.5114,-5.5373,0,-5.4268,-5.4485,-5.4458,-5.4667,-5.4765,-5.4691,-5.4802,-5.485,-5.4857,-5.4943,-5.4952,-5.5051,-5.4961,-5.499,-5.508,-5.5093,-5.5234,-5.5074,-5.5202,-5.5207,-5.5188,-5.5514,-5.5568,-5.5811,-5.5407,-5.5412,-5.5416,0,-5.4592,-5.4662,-5.488,-5.492,-5.496,-5.506,-5.514,-5.5223,-5.5277,-5.5275,-5.5332,-5.5292,-5.5421,-5.5302,-5.548,-5.5373,-5.5424,-5.5438,-5.5447,-5.5457,-5.5324,-5.5533,-5.5887,-5.5924,-5.5469,-5.5464,-5.5461,0,-5.482,-5.4969,-5.5118,-5.515,-5.5202,-5.5274,-5.5299,-5.5345,-5.5401,-5.5472,-5.5508,-5.5595,-5.5642,-5.5711,-5.5697,-5.5612,-5.5879,-5.5759,-5.5883,-5.5884,-5.5942,-5.5938,-5.6309,-5.5977,-5.5976,-5.5975,-5.5975,0,-5.5104,-5.5241,-5.522,-5.5312,-5.5463,-5.5432,-5.5583,-5.56,-5.5641,-5.5737,-5.568,-5.5771,-5.5746,-5.5837,-5.5828,-5.5977,-5.5999,-5.6003,-5.5998,-5.6007,-5.6007,-5.6039,-5.6022,-5.5985,-5.5983,-5.5981,-5.5979,0,-5.5384,-5.5376,-5.5534,-5.5569,-5.5581,-5.5691,-5.5722,-5.581,-5.5812,-5.5934,-5.5961,-5.5966,-5.607,-5.6062,-5.618,-5.6174,-5.6358,-5.6334,-5.6339,-5.6333,-5.6457,-5.6446,-5.6861,-5.6914,-5.6549,-5.6552,-5.6555,0,-5.5565,-5.5668,-5.5714,-5.5773,-5.5802,-5.5898,-5.5954,-5.5928,-5.5989,-5.6058,-5.6138,-5.6236,-5.6313,-5.6483,-5.6499,-5.6589,-5.6567,-5.6706,-5.658,-5.6586,-5.6568,-5.6561,-5.6572,-5.6731,-5.6735,-5.6738,-5.6741,0,-5.5889,-5.5879,-5.5961,-5.6043,-5.6111,-5.6174,-5.6232,-5.6284,-5.6264,-5.6336,-5.644,-5.65,-5.662,-5.6719,-5.6805,-5.6833,-5.6785,-5.6781,-5.6814,-5.6824,-5.6822,-5.6824,-5.6406,-5.6771,-5.6768,-5.6766,-5.6764,-5.6763,-5.6124,-5.6212,-5.6257,-5.6351,-5.6391,-5.6446,-5.653,-5.6542,-5.6628,-5.6721,-5.6702,-5.682,-5.6872,-5.6982,-5.7019,-5.7111,-5.7062,-5.711,-5.7122,-5.7134,-5.7148,-5.6808,-5.7127,-5.7127,-5.7126,-5.7125,-5.7124,0,-5.6443,-5.6469,-5.6555,-5.6636,-5.6711,-5.6657,-5.6718,-5.6784,-5.6887,-5.6939,-5.7015,-5.7136,-5.7231,-5.7255,-5.7347,-5.7417,-5.7397,-5.7442,-5.7436,-5.7443,-5.7188,-5.7149,-5.7456,-5.7456,-5.7456,-5.7456,-5.7456,-5.7456,-5.6618,-5.6763,-5.676,-5.6925,-5.695,-5.7063,-5.7102,-5.7154,-5.7194,-5.733,-5.7409,-5.7422,-5.7463,-5.7558,-5.7644,-5.7648,-5.7685,-5.7738,-5.7734,-5.7495,-5.7462,-5.743,-5.7393,-5.7747,-5.7747,-5.7982,-5.7984,-5.7986]},{"header":{"parameterUnit":"m.s-1","parameterCategory":1,"la1":30.2991,"la2":30.254,"lo1":-89.0895,"lo2":-89.0444,"dy":0.0017,"dx":0.0017,"nx":28,"ny":28,"refTime":"2024-06-15T09:00:00:Z","depth":0,"parameterNumber":3,"parameterNumberName":"V-component_of_WINDS"},"data":[0,0,0,0,0,0,0,0,0,0,0,0,0,0,0,0,0,0,0,0,0,0,0,0,0,0,0,0,0,0,0,0,0,0,0,0,0,0,0,0,0,0,0,0,0,0,0,0,0,0,0,0,0,0,0,0,0,0,-1.1275,-1.1275,0,-1.1251,-1.1251,-1.125,-1.1262,-1.1263,-1.1264,-1.1264,-1.1236,-1.1235,-1.1233,0,0,0,0,0,0,0,0,0,0,0,0,0,-1.1326,-1.1325,-1.1275,-1.1275,-1.1274,-1.1251,-1.1251,-1.125,-1.1262,-1.1263,-1.1264,-1.1265,-1.1236,-1.1235,-1.1233,0,0,0,0,0,0,0,0,0,0,0,0,0,-1.1303,-1.1325,-1.1275,-1.1278,-1.1278,-1.1251,-1.1251,-1.125,-1.1262,-1.1263,-1.1264,-1.1265,-1.1237,-1.1235,-1.1233,-1.1201,0,0,-1.1227,-1.1226,0,0,0,0,0,0,0,0,-1.1304,-1.1301,-1.1278,-1.1277,-1.1277,-1.1261,-1.1258,-1.1233,-1.1262,-1.1268,-1.1264,-1.1266,-1.1243,-1.1241,-1.1234,-1.12,-1.1198,-1.1226,-1.1225,-1.1224,-1.1224,0,0,0,0,0,0,0,-1.1306,-1.1302,-1.1265,-1.1277,-1.1277,-1.1278,-1.1276,-1.1254,-1.125,-1.1268,-1.1268,-1.1266,-1.1243,-1.1236,-1.1233,-1.1198,-1.1227,-1.1225,-1.1223,-1.1223,-1.1132,-1.1131,0,0,0,0,0,0,-1.1308,-1.1304,-1.1266,-1.1265,-1.1294,-1.1277,-1.1274,-1.1265,-1.1251,-1.1249,-1.1265,-1.1266,-1.1239,-1.1236,-1.1232,-1.1192,-1.1224,-1.1222,-1.1221,-1.1133,-1.1132,-1.1131,0,0,0,0,0,0,-1.1309,-1.1305,-1.1267,-1.1284,-1.128,-1.1275,-1.1264,-1.1264,-1.1257,-1.1249,-1.1248,-1.1258,-1.1239,-1.1235,-1.1208,-1.1191,-1.1222,-1.122,-1.1135,-1.1133,-1.1131,-1.1111,0,0,0,0,0,0,-1.1311,-1.1305,-1.1294,-1.1284,-1.1279,-1.1245,-1.1263,-1.1263,-1.1254,-1.1255,-1.1242,-1.1241,-1.124,-1.1211,-1.1206,-1.1189,-1.1218,-1.1136,-1.1134,-1.1132,-1.1114,-1.1109,-1.1105,0,0,0,0,0,-1.1313,-1.129,-1.1294,-1.1289,-1.1265,-1.1244,-1.1241,-1.1241,-1.1252,-1.124,-1.1234,-1.1241,-1.1194,-1.1208,-1.1203,-1.1184,-1.1137,-1.1135,-1.1132,-1.1115,-1.111,-1.1106,0,0,0,0,0,0,-1.1297,-1.1288,-1.1293,-1.1266,-1.1256,-1.1246,-1.1231,-1.1236,-1.1222,-1.1224,-1.1224,-1.122,-1.1192,-1.1185,-1.1202,-1.1151,-1.1167,-1.1163,-1.1156,-1.1151,-1.1147,-1.1148,-1.1216,0,0,0,0,0,-1.1291,-1.1276,-1.1268,-1.1245,-1.124,-1.1236,-1.1227,-1.1228,-1.1217,-1.1212,-1.1205,-1.1192,-1.1174,-1.1162,-1.1146,-1.1113,-1.1108,-1.1097,-1.1093,-1.109,-1.1086,-1.1065,-1.1059,-1.1122,-1.1122,-1.1122,0,0,-1.1277,-1.1271,-1.1261,-1.1242,-1.1234,-1.1216,-1.1233,-1.1214,-1.12,-1.1209,-1.1183,-1.1177,-1.1162,-1.1131,-1.1117,-1.1125,-1.1067,-1.1086,-1.1084,-1.1082,-1.1061,-1.1056,-1.105,-1.112,-1.1121,-1.1121,0,0,-1.1243,-1.1238,-1.1217,-1.1209,-1.1196,-1.1194,-1.1189,-1.1178,-1.1174,-1.1148,-1.1154,-1.1136,-1.1106,-1.1095,-1.1085,-1.1044,-1.1048,-1.1038,-1.1017,-1.0996,-1.0991,-1.0987,-1.0969,-1.0964,-1.1035,-1.1035,-1.1035,0,-1.1228,-1.1203,-1.1205,-1.1186,-1.1176,-1.1184,-1.1161,-1.1152,-1.1135,-1.1127,-1.1136,-1.1096,-1.1088,-1.1053,-1.1042,-1.1035,-1.1027,-1.104,-1.0992,-1.0987,-1.0983,-1.0967,-1.0961,-1.1033,-1.1034,-1.1034,-1.1034,0,-1.1183,-1.1166,-1.115,-1.1133,-1.1122,-1.1101,-1.1098,-1.1085,-1.1087,-1.1082,-1.1054,-1.1043,-1.1023,-1.1015,-1.1016,-1.0979,-1.0984,-1.0993,-1.1009,-1.0976,-1.096,-1.0954,-1.1032,-1.1032,-1.1032,-1.1033,0,0,-1.114,-1.1124,-1.1118,-1.1109,-1.1095,-1.1081,-1.1058,-1.104,-1.1028,-1.1015,-1.0994,-1.0967,-1.0974,-1.0963,-1.0963,-1.0945,-1.091,-1.0956,-1.0955,-1.0945,-1.0865,-1.0857,-1.085,-1.0913,-1.0912,-1.0911,-1.0865,0,-1.1103,-1.1066,-1.1067,-1.1031,-1.1014,-1.102,-1.1,-1.0988,-1.0983,-1.0965,-1.0958,-1.0938,-1.0951,-1.0943,-1.0926,-1.0918,-1.0893,-1.0921,-1.0891,-1.089,-1.0894,-1.0843,-1.0835,-1.0793,-1.0859,-1.0858,-1.0858,0,-1.1056,-1.1042,-1.1005,-1.0992,-1.0984,-1.0967,-1.0948,-1.0932,-1.0917,-1.0914,-1.0901,-1.0902,-1.0877,-1.0894,-1.0857,-1.0876,-1.0864,-1.0857,-1.0856,-1.0852,-1.0871,-1.0835,-1.0779,-1.0772,-1.0849,-1.0849,-1.085,0,-1.1026,-1.0997,-1.0971,-1.0964,-1.0948,-1.0935,-1.0927,-1.0914,-1.0901,-1.0884,-1.0875,-1.0855,-1.0844,-1.0827,-1.0822,-1.0835,-1.0784,-1.0801,-1.0778,-1.0778,-1.0766,-1.0767,-1.0706,-1.0761,-1.0761,-1.0761,-1.0761,0,-1.0984,-1.0961,-1.0957,-1.094,-1.0913,-1.0913,-1.0885,-1.0878,-1.0866,-1.0846,-1.085,-1.0831,-1.0826,-1.0805,-1.0801,-1.0769,-1.0765,-1.0759,-1.0758,-1.0758,-1.0759,-1.0749,-1.0751,-1.0759,-1.076,-1.076,-1.076,0,-1.0945,-1.0942,-1.0913,-1.09,-1.0896,-1.0877,-1.0864,-1.0847,-1.0842,-1.0817,-1.0811,-1.0801,-1.0777,-1.077,-1.0741,-1.0738,-1.07,-1.0702,-1.0705,-1.0705,-1.0681,-1.0682,-1.061,-1.06,-1.0664,-1.0663,-1.0662,0,-1.0919,-1.0901,-1.0886,-1.0874,-1.0866,-1.0846,-1.0833,-1.0831,-1.0817,-1.0797,-1.0782,-1.0758,-1.0739,-1.0699,-1.0688,-1.0664,-1.0665,-1.0641,-1.0661,-1.0661,-1.0662,-1.0662,-1.0659,-1.0637,-1.0636,-1.0636,-1.0635,0,-1.0871,-1.0869,-1.0852,-1.0833,-1.0818,-1.0803,-1.0788,-1.0777,-1.0772,-1.0756,-1.0731,-1.0716,-1.0686,-1.0661,-1.0637,-1.0626,-1.0628,-1.0629,-1.0622,-1.0621,-1.0623,-1.0619,-1.0693,-1.0631,-1.0631,-1.0631,-1.0632,-1.0632,-1.0836,-1.0819,-1.0806,-1.0785,-1.0774,-1.0759,-1.0742,-1.0734,-1.0714,-1.069,-1.0689,-1.0662,-1.0644,-1.0612,-1.06,-1.0576,-1.0583,-1.0574,-1.0571,-1.0568,-1.0565,-1.0628,-1.0572,-1.0572,-1.0572,-1.0572,-1.0572,0,-1.0786,-1.0777,-1.0759,-1.0738,-1.0721,-1.0727,-1.071,-1.0694,-1.0671,-1.0655,-1.0636,-1.0605,-1.058,-1.0567,-1.0541,-1.0525,-1.0525,-1.0518,-1.0518,-1.0515,-1.0561,-1.0569,-1.0518,-1.0518,-1.0518,-1.0518,-1.0518,-1.0518,-1.0758,-1.073,-1.0727,-1.0691,-1.0682,-1.0656,-1.0646,-1.0631,-1.0618,-1.0585,-1.0565,-1.0557,-1.054,-1.0513,-1.049,-1.0486,-1.0475,-1.0467,-1.0464,-1.0507,-1.0512,-1.0518,-1.0525,-1.0465,-1.0465,-1.0419,-1.0419,-1.0418]}]]